Regional Weather Roundup
Issued by NWS

Home | Current Version | Previous Version | Graphics & Text | Print | Product List | Glossary On
Versions: 1 2 3 4 5 6 7 8 9 10 11 12 13 14 15 16 17 18 19 20 21 22 23 24 25 26 27 28 29 30 31 32 33 34 35 36 37 38 39 40 41 42 43 44 45 46 47 48 49 50
000
ASUS43 KFSD 021402
RWRSD

WEATHER ROUNDUP FOR SOUTH DAKOTA
NATIONAL WEATHER SERVICE SIOUX FALLS SD
900 AM CDT TUE SEP 02 2014

NOTE: "FAIR" INDICATES FEW OR NO CLOUDS BELOW 12,000 FEET WITH NO
SIGNIFICANT WEATHER AND/OR OBSTRUCTIONS TO VISIBILITY.


SDZ001>005-009-010-012>017-021500-
NORTHWEST AND NORTH CENTRAL SOUTH DAKOTA

CITY           SKY/WX    TMP DP  RH WIND       PRES   REMARKS
BUFFALO          N/A     55  46  71 W10       29.84S
FAITH            N/A     54  46  74 SW12      29.91S
MOBRIDGE       SUNNY     56  52  86 S5        29.86S
$$

SDZ012>016-024>037-041>051-057-063-072>074-021500-
SOUTHWEST AND SOUTH CENTRAL SOUTH DAKOTA

CITY           SKY/WX    TMP DP  RH WIND       PRES   REMARKS
RAPID CTY ARPT SUNNY     55  44  66 SW8       29.95F
PIERRE         SUNNY     58  51  78 W15       29.91S
CUSTER         SUNNY     55  38  52 SW5       30.06F
ELLSWORTH AFB  SUNNY     59  45  58 SW9       29.95S
PHILIP         SUNNY     56  50  80 W5        29.94S
PINE RIDGE     SUNNY     49  47  93 CALM      30.01F
WINNER         FAIR      61  52  72 CALM      29.96S
$$

SDZ004>011-016>023-039-040-021500-
NORTHEAST SOUTH DAKOTA

CITY           SKY/WX    TMP DP  RH WIND       PRES   REMARKS
ABERDEEN       SUNNY     55  53  93 S6        29.89S
WATERTOWN      SUNNY     58  54  86 SW5       29.91S
SISSETON         N/A     65  55  70 W12       29.86S
$$

SDZ017-020-022-023-036>040-048>070-021500-
SOUTHEAST SOUTH DAKOTA

CITY           SKY/WX    TMP DP  RH WIND       PRES   REMARKS
SIOUX FALLS    SUNNY     62  57  83 NW6       29.95R
HURON          SUNNY     59  55  87 S5        29.92S
CHAMBERLAIN    SUNNY     57  53  85 SW6       29.95S
MITCHELL       SUNNY     59  55  87 S3        29.95R
YANKTON        SUNNY     61  55  82 SW7       29.96S
$$

ABBREVIATIONS USED IN REMARKS
   TC - TEMPERATURE IN CELSIUS
  WCI - WIND CHILL INDEX
   HX - HEAT INDEX
  VSB - VISIBILITY



USA.gov is the U.S. government's official web portal to all federal, state and local government web resources and services.